STARLINK-33604 (63070 NORAD) Tracking and Keplerian Element Data

This shows tracking and keplerian element data for the satellite.

Feedback or suggestion? Click here.




ElementValue
Catalog63070
NameSTARLINK-33604
Epoch Orbit4754
Epoch Day354.10449285
Epoch Year2025
RAAN236.9337
Inclination42.9964
Eccentricity0.0001051
Argument of Perigee271.3984
Mean Anonmoly88.6747
Mean Motion15.27578743
Decay Rate0.00017356
L11 63070U 25035U 25354.10449285 .00017356 00000+0 63877-3 0 9998
L22 63070 42.9964 236.9337 0001051 271.3984 88.6747 15.27578743 47545



Live tracking and technical data element details for STARLINK-33604 (NORAD 63070). STARLINK-33604 can be tracked NOW for your location showing map with azimuth and elevation plus other details from your city location.







IsCatalogInMostPopularTable: catalog: 63070, numindb: 2
Update: records affected: 1



GetName: 63070 STARLINK-33604

Hit Count: updated at: Tue, 10 Feb 2026 03:37:56 GMT